This demonstration page uses our WeatherBlox Daily Observations layout. Learn more.

Left ArrowRight Arrow

Hourly Observations for June 10, 2021

Temp ( °F °C ) Dew Point ( °F °C ) Humidity (%) Winds ( mph kmh ) Pressure ( in mb ) Visibility ( mi km ) Precip ( " mm )
12:15 am 00:15 Partly Cloudy 76 24.3 66 19 72 72 SE 8 13 29.89 1012 10 16 N/A
12:35 am 00:35 Mostly Cloudy 76 24.3 66 19.1 73 73 SE 6 9 29.89 1012 10 16 N/A
12:55 am 00:55 Mostly Cloudy 76 24.5 67 19.2 72 72 SE 9 15 29.89 1012 10 16 N/A
1:15 am 01:15 Partly Cloudy 76 24.6 66 19.1 72 72 SSE 10 17 29.89 1012 10 16 N/A
1:35 am 01:35 Mostly Cloudy 76 24.3 66 19.1 73 73 SSE 8 13 29.88 1012 10 16 N/A
1:55 am 01:55 Cloudy 76 24.3 66 19 72 72 SSE 8 13 29.88 1012 10 16 N/A
2:15 am 02:15 Mostly Cloudy 75 24 66 19 74 74 SSE 8 13 29.88 1012 10 16 N/A
2:35 am 02:35 Mostly Cloudy 75 23.8 66 19.1 75 75 SSE 7 11 29.89 1012 10 16 N/A
2:55 am 02:55 Partly Cloudy 74 23.5 66 19.1 76 76 SSE 7 11 29.89 1012 10 16 N/A
3:15 am 03:15 Partly Cloudy 74 23.5 67 19.2 77 77 S 6 9 29.89 1012 10 16 N/A
3:35 am 03:35 Mostly Cloudy 73 23 66 19.1 79 79 SSE 6 9 29.88 1012 10 16 N/A
3:55 am 03:55 Mostly Cloudy 73 22.7 67 19.5 82 82 SSE 5 7 29.89 1012 10 16 N/A
4:15 am 04:15 Mostly Cloudy 72 22.2 67 19.5 85 85 SE 6 9 29.89 1012 10 16 N/A
4:35 am 04:35 Partly Cloudy 72 22.2 67 19.5 85 85 SSE 6 9 29.88 1012 10 16 N/A
4:55 am 04:55 Clear 72 22.2 68 19.8 86 86 SSE 6 9 29.88 1012 10 16 N/A
5:15 am 05:15 Partly Cloudy 72 22.1 68 19.9 87 87 SSE 7 11 29.88 1012 10 16 N/A
5:35 am 05:35 Partly Cloudy 72 22 68 20 88 88 SE 6 9 29.87 1012 10 16 N/A
5:55 am 05:55 Partly Cloudy 71 21.8 68 20 90 90 SE 6 9 29.87 1012 10 16 N/A
6:15 am 06:15 Partly Cloudy 71 21.6 68 20 91 91 SE 7 11 29.87 1012 10 16 N/A
6:35 am 06:35 Partly Cloudy 71 21.7 68 20.1 91 91 SSE 5 7 29.87 1012 10 16 N/A
6:55 am 06:55 Sunny 72 22.4 69 20.8 91 91 SSE 8 13 29.87 1011 10 16 N/A
7:15 am 07:15 Sunny 74 23.6 71 21.7 89 89 SSE 8 13 29.85 1011 10 16 N/A
7:35 am 07:35 Sunny 76 24.3 72 22.2 88 88 SSE 10 17 29.84 1011 7 11 N/A
7:55 am 07:55 Sunny 77 25 73 22.6 87 87 SSE 9 15 29.84 1010 7 11 N/A
8:15 am 08:15 Partly Cloudy 78 25.5 73 22.9 86 86 S 12 19 29.83 1010 7 11 N/A
8:35 am 08:35 Mostly Cloudy 78 25.3 73 22.8 86 86 S 13 20 29.83 1010 7 11 N/A
8:55 am 08:55 Cloudy 78 25.5 73 23 86 86 S 12 19 29.83 1010 7 11 N/A
9:15 am 09:15 Cloudy 78 25.7 73 23 85 85 S 12 19 29.82 1010 7 11 N/A
9:35 am 09:35 Cloudy 78 25.7 74 23.1 86 86 S 12 19 29.83 1010 7 11 N/A
9:55 am 09:55 Cloudy 78 25.5 74 23.1 87 87 S 13 20 29.83 1010 7 11 N/A
10:15 am 10:15 Cloudy 78 25.5 74 23.2 87 87 S 10 17 29.82 1010 7 11 N/A
10:35 am 10:35 Cloudy 78 25.8 74 23.3 86 86 S 12 19 29.81 1009 7 11 N/A
10:55 am 10:55 Cloudy 79 26.1 74 23.4 85 85 S 12 19 29.81 1009 7 11 N/A
11:15 am 11:15 Cloudy 79 26.3 74 23.4 84 84 S 13 20 29.81 1009 7 11 N/A
11:35 am 11:35 Cloudy 81 27 74 23.5 81 81 S 10 17 29.79 1009 10 16 N/A
11:55 am 11:55 Cloudy 82 27.5 75 23.7 80 80 SSE 12 19 29.79 1009 7 11 N/A
12:15 pm 12:15 Cloudy 83 28.5 75 24 77 77 S 9 15 29.77 1008 10 16 N/A
12:35 pm 12:35 Mostly Cloudy 85 29.3 75 24 73 73 SE 13 20 29.75 1008 10 16 N/A
12:55 pm 12:55 Mostly Cloudy 86 30.2 76 24.2 70 70 SSE 12 19 29.75 1007 10 16 N/A
1:15 pm 13:15 Mostly Cloudy 87 30.8 75 24 67 67 SSE 14 22 29.73 1007 10 16 N/A
1:35 pm 13:35 Cloudy 88 31.1 74 23.6 64 64 S 15 24 29.72 1006 10 16 N/A
1:55 pm 13:55 Cloudy 89 31.5 75 23.7 63 63 S 15 24 29.71 1006 10 16 N/A
2:15 pm 14:15 Mostly Cloudy 90 32.2 73 22.6 57 57 S 16 26 29.69 1005 10 16 N/A
2:35 pm 14:35 Mostly Cloudy 91 32.6 72 22.4 55 55 SSE 15 24 29.68 1005 10 16 N/A
2:55 pm 14:55 Mostly Cloudy 91 32.8 72 22.2 54 54 S 18 30 29.68 1005 10 16 N/A
3:15 pm 15:15 Mostly Cloudy 92 33.5 71 21.6 50 50 S 16 26 29.67 1005 10 16 N/A
3:35 pm 15:35 Mostly Cloudy 92 33.6 71 21.6 49 49 SSE 16 26 29.66 1004 10 16 N/A
3:55 pm 15:55 Mostly Cloudy 92 33.6 70 21.2 48 48 SSE 14 22 29.65 1004 10 16 N/A
4:15 pm 16:15 Partly Cloudy 94 34.3 70 21.1 46 46 S 18 30 29.65 1004 10 16 N/A
4:35 pm 16:35 Mostly Cloudy 93 34.1 71 21.5 48 48 SSE 18 30 29.64 1004 10 16 N/A
4:55 pm 16:55 Mostly Cloudy 93 34 70 21.3 47 47 S 17 28 29.64 1004 10 16 N/A
5:15 pm 17:15 Partly Cloudy 93 34 69 20.8 46 46 SSE 18 30 29.63 1003 10 16 N/A
5:35 pm 17:35 Sunny 93 33.9 69 20.7 46 46 SSE 17 28 29.62 1003 10 16 N/A
5:55 pm 17:55 Partly Cloudy 93 33.9 69 20.8 46 46 SSE 20 31 29.62 1003 10 16 N/A
6:15 pm 18:15 Partly Cloudy 92 33.6 69 20.7 47 47 SSE 18 30 29.61 1003 10 16 N/A
6:35 pm 18:35 Partly Cloudy 91 32.7 69 20.7 49 49 SSE 18 30 29.61 1003 10 16 N/A
6:55 pm 18:55 Partly Cloudy 91 33 69 20.6 48 48 SSE 20 31 29.61 1003 10 16 N/A
7:15 pm 19:15 Sunny 91 32.5 69 20.4 49 49 SSE 18 30 29.60 1002 10 16 N/A
7:35 pm 19:35 Sunny 89 31.9 69 20.6 51 51 SSE 14 22 29.61 1003 10 16 N/A
7:55 pm 19:55 Sunny 89 31.5 69 20.6 52 52 SSE 16 26 29.62 1003 10 16 N/A
8:15 pm 20:15 Sunny 88 31.2 69 20.8 54 54 SSE 16 26 29.62 1003 10 16 N/A
8:35 pm 20:35 Sunny 87 30.6 69 20.7 56 56 SSE 16 26 29.61 1003 10 16 N/A
8:55 pm 20:55 Sunny 86 30 69 20.6 57 57 SSE 14 22 29.62 1003 10 16 N/A
9:15 pm 21:15 Clear 85 29.4 69 20.7 60 60 SSE 14 22 29.62 1003 10 16 N/A
9:35 pm 21:35 Clear 84 28.7 69 20.5 61 61 SSE 14 22 29.63 1003 10 16 N/A
9:55 pm 21:55 Clear 83 28.3 69 20.5 63 63 SSE 14 22 29.63 1003 10 16 N/A
10:15 pm 22:15 Clear 82 28 69 20.5 64 64 SSE 14 22 29.63 1004 10 16 N/A
10:35 pm 22:35 Clear 82 27.6 69 20.5 65 65 SSE 13 20 29.65 1004 10 16 N/A
10:55 pm 22:55 Clear 81 27.3 69 20.5 66 66 SSE 13 20 29.65 1004 10 16 N/A
11:15 pm 23:15 Clear 81 27.1 69 20.6 68 68 SSE 13 20 29.65 1004 10 16 N/A
11:35 pm 23:35 Clear 80 26.8 69 20.6 69 69 SSE 12 19 29.65 1004 10 16 N/A
11:55 pm 23:55 Clear 80 26.5 69 20.6 70 70 SSE 10 17 29.66 1004 10 16 N/A

Powered by AerisWeather